Wind_Speed
15 23 23 20 21 19 18 16 14 14 13 12 11 10 7 7 10 12 14 15 14 13 11 12 11 11 12 15 17 19 21 21 22 22 21 22 21 21 22 24 24 27 28
19 24 24 21 20 19 18 16 15 14 15 13 10 8 7 7 9 11 13 13 10 7 8 12 12 11 11 12 14 16 18 23 21 21 20 19 22 20 21 23 24 25 26
22 23 24 23 21 19 17 15 14 13 13 11 10 8 7 7 9 10 13 12 8 9 12 13 14 13 12 11 13 15 17 19 17 22 24 20 20 20 20 22 22 24 25
20 20 22 23 21 20 18 17 15 14 13 11 9 7 6 8 9 9 11 11 7 10 11 12 13 13 14 14 13 14 16 18 18 21 22 21 20 19 19 19 21 23 24
20 18 20 24 22 20 18 17 15 15 14 11 8 6 5 9 10 9 10 10 7 8 10 11 12 12 13 14 15 18 20 21 18 17 23 22 22 20 19 20 20 21 23
20 18 20 23 21 20 18 17 16 15 14 11 8 5 5 11 12 11 10 9 5 7 8 9 10 11 11 13 16 20 19 15 20 17 16 22 23 22 22 23 22 21 21
18 18 19 22 21 19 18 17 16 15 15 11 8 5 8 13 10 12 9 8 6 7 6 7 7 8 9 11 14 18 20 16 21 19 17 18 21 23 24 24 25 25 23
19 19 19 23 20 20 19 17 16 16 14 10 8 7 12 13 12 11 8 9 6 6 5 5 6 7 8 11 13 16 22 16 16 18 19 17 14 17 22 24 24 25 26
18 18 18 19 21 19 18 17 18 16 13 9 7 11 16 13 12 11 9 9 6 3 3 4 5 6 8 10 13 15 20 18 16 15 15 16 15 14 16 18 18 20 22
17 19 20 21 18 17 18 18 17 15 12 9 12 14 16 12 11 10 6 8 6 4 3 4 5 6 9 12 16 19 21 17 16 14 15 18 19 19 17 17 18 18 19
18 17 19 21 19 17 16 17 16 13 11 13 17 16 14 11 11 8 9 9 6 4 4 4 7 8 12 16 19 23 17 13 13 15 16 17 17 16 15 14 14 15 17
18 18 19 21 22 19 16 14 13 12 15 16 16 16 9 9 9 10 11 9 7 5 5 7 12 15 13 16 18 16 14 14 15 16 17 18 19 19 18 17 17 16 16
19 17 21 20 22 17 17 14 15 14 16 20 18 17 11 11 12 9 10 9 7 6 7 12 14 11 9 10 11 13 13 13 14 15 17 18 18 19 19 19 19 19 19
22 17 21 21 17 18 16 15 15 15 20 21 20 16 14 10 12 10 10 10 7 7 9 9 8 11 11 11 11 12 12 11 12 14 16 17 17 17 17 18 18 19 19
20 29 24 21 19 18 17 16 16 21 18 22 16 16 12 12 13 12 11 11 9 9 9 9 10 11 11 11 10 11 12 12 11 11 14 15 15 15 16 16 17 17 18
23 24 26 21 22 19 18 17 17 18 24 21 20 15 12 12 12 12 12 11 11 11 11 10 10 10 10 10 10 10 10 11 10 11 10 11 11 13 14 14 14 15 15
24 28 25 26 22 19 18 19 19 22 23 18 16 13 13 13 13 13 13 12 12 12 12 11 10 10 9 8 9 8 9 9 10 9 8 9 8 8 9 10 11 12 13
27 29 31 30 27 23 20 21 22 23 26 22 13 14 15 15 14 14 13 13 14 13 13 12 11 10 9 9 8 8 7 8 8 8 9 8 4 3 5 6 7 9 11
29 32 28 28 27 26 23 22 23 22 26 23 14 14 17 15 15 15 14 15 15 15 13 12 11 9 9 8 8 7 6 7 6 5 5 4 4 3 0 2 5 7 8
27 31 34 35 32 27 24 25 22 21 26 18 15 16 17 17 17 15 16 16 16 16 13 13 10 9 8 7 7 6 5 6 6 6 4 3 4 4 4 4 6 7 8
20 28 35 40 34 35 30 27 28 24 23 18 16 15 17 18 20 17 16 16 17 15 14 13 10 9 9 8 7 6 5 5 6 7 8 6 7 7 7 7 6 6 11
17 24 43 37 36 34 33 32 33 27 24 20 17 19 21 21 19 21 21 21 19 15 13 14 13 11 9 10 6 6 6 6 8 9 9 9 8 9 8 8 6 7 9
18 22 25 31 35 33 32 31 33 28 27 24 19 19 23 20 20 24 24 21 20 15 14 14 16 13 9 9 10 6 5 7 8 11 11 12 10 11 8 10 9 13 13
15 17 22 24 26 30 29 28 29 28 26 28 26 23 22 25 27 28 28 26 25 24 20 17 14 12 11 11 11 14 13 7 4 4 9 12 12 9 11 14 12 14 15
12 12 17 6 17 27 25 19 24 25 22 20 21 25 28 31 31 30 29 30 26 22 20 18 17 12 11 13 14 12 15 18 17 14 12 10 12 13 15 18 14 17 14
8 8 11 9 11 20 19 12 18 19 22 19 21 21 26 33 36 36 40 38 40 33 33 24 20 20 14 19 18 15 16 12 12 14 15 15 14 16 13 15 16 17 15
Wind_Direction
191 177 170 170 163 169 166 163 166 162 155 151 150 146 138 103 96 100 101 102 99 92 73 64 81 94 90 84 81 78 77 73 70 63 62 67 70 74 69 65 62 59 57
168 171 169 171 169 172 167 166 159 155 160 159 160 151 137 112 105 104 108 107 111 94 71 66 74 91 98 95 90 84 79 74 70 70 63 62 66 67 68 65 63 61 58
156 165 170 173 172 172 170 165 166 160 164 168 161 152 138 124 115 111 118 108 108 93 79 72 72 81 88 97 93 88 83 79 70 72 71 59 65 66 68 65 64 62 58
156 164 167 172 172 173 173 172 172 170 167 172 169 163 147 141 124 118 121 124 111 95 82 73 73 80 87 95 98 94 84 79 64 74 65 68 62 66 68 68 67 67 62
158 162 175 172 175 174 176 176 177 173 172 181 180 167 157 146 132 126 129 117 112 97 83 74 74 80 87 91 91 89 86 80 69 68 72 68 67 66 69 70 71 72 71
160 162 190 179 177 177 179 177 178 175 180 187 177 179 163 148 145 152 133 127 122 103 90 76 74 80 88 94 93 94 85 102 90 75 73 69 69 71 75 77 73 72 71
165 165 192 186 179 180 181 179 179 180 190 190 190 193 162 152 154 159 137 133 129 112 93 78 71 78 96 99 102 101 88 77 81 85 83 79 74 73 74 76 75 72 67
164 169 180 183 184 183 183 181 181 185 196 190 195 180 159 150 162 163 145 139 142 118 93 81 80 82 99 108 109 105 95 84 67 66 82 86 82 82 76 75 75 74 71
172 171 176 179 184 184 182 183 187 194 205 197 187 167 154 166 160 159 148 140 163 143 110 98 87 95 103 104 109 107 106 98 87 83 77 86 78 89 87 81 77 78 79
174 179 180 178 176 177 182 184 191 208 210 191 169 157 163 160 161 156 171 151 184 175 136 111 102 102 110 105 103 96 77 76 80 83 83 89 81 76 87 89 87 83 79
181 183 178 180 174 176 176 188 194 216 196 166 161 171 160 162 174 142 170 147 191 159 135 122 106 108 107 102 99 88 83 86 87 86 86 88 85 85 91 95 87 81 84
186 185 179 178 176 176 178 210 189 193 180 167 169 159 159 160 131 174 197 166 186 160 143 120 111 96 94 99 83 84 97 94 89 86 89 86 81 80 81 79 78 75 74
190 194 193 189 175 186 182 195 185 186 186 181 171 156 177 164 180 164 158 152 170 140 141 128 105 103 120 109 100 102 99 95 94 92 87 85 83 81 79 78 75 73 71
217 232 214 191 194 192 193 195 185 185 197 181 160 169 165 177 160 166 149 156 152 141 140 127 136 128 117 109 107 105 105 102 101 94 93 88 84 80 77 74 73 71 68
199 195 199 202 193 195 196 192 191 195 195 172 174 175 171 175 170 171 166 165 163 161 146 148 134 124 123 124 118 112 111 110 108 106 106 100 92 84 75 67 63 60 60
207 213 194 193 191 197 196 195 197 198 176 173 183 173 176 179 175 171 170 167 169 158 156 145 142 138 129 127 123 124 117 119 114 112 113 107 101 88 79 70 60 54 50
212 208 199 195 191 198 199 201 202 201 181 183 180 179 179 180 180 174 172 172 167 164 156 153 154 137 139 131 120 121 121 119 124 120 103 104 100 77 75 68 59 53 45
216 206 213 193 185 196 200 208 211 204 198 192 187 181 180 182 178 177 175 170 168 164 165 162 162 153 148 144 138 140 137 129 135 138 142 136 105 77 69 58 47 39 33
220 209 207 189 190 189 194 207 209 212 200 200 189 185 185 183 179 174 178 176 169 172 170 168 163 167 158 158 161 154 146 146 156 151 150 175 163 162 299 12 8 12 14
224 214 206 187 187 188 192 205 203 211 205 190 191 190 192 188 180 173 176 178 178 178 172 171 175 176 175 175 172 169 176 177 179 168 194 188 232 231 263 310 338 334 341
225 239 248 188 185 183 192 203 199 201 189 185 191 188 187 191 188 180 179 177 181 186 185 175 182 181 182 182 178 186 195 205 212 211 202 202 250 260 276 277 290 316 316
211 211 214 199 200 197 196 201 198 199 186 186 183 190 195 199 202 201 198 191 190 186 190 181 188 187 195 189 195 212 220 233 223 227 234 221 231 268 260 270 275 280 286
203 220 214 189 196 192 203 196 195 198 201 195 195 202 209 208 204 202 200 199 193 183 195 188 202 184 212 215 203 213 236 250 228 247 242 243 233 246 255 262 256 271 279
224 218 234 212 206 191 194 198 202 199 212 218 217 223 220 212 213 213 207 202 197 195 193 194 210 216 219 254 260 242 229 254 280 233 226 243 238 235 246 257 244 263 282
237 213 205 196 222 192 193 205 195 204 218 238 235 235 232 228 222 216 211 208 209 209 211 198 205 205 240 262 260 265 266 250 253 260 276 242 233 247 244 252 273 266 270
216 195 213 194 221 202 176 199 189 207 230 241 246 241 240 222 219 221 228 218 213 208 206 208 221 218 224 262 258 257 264 267 266 259 256 259 270 268 258 253 255 259 273
Height
1497 1499 1503 1507 1510 1513 1516 1518 1520 1522 1523 1525 1526 1527 1528 1529 1530 1530 1531 1532 1532 1531 1531 1531 1530 1530 1529 1529 1529 1529 1528 1527 1526 1526 1525 1524 1523 1522 1521 1520 1518 1516 1514
1495 1498 1503 1507 1511 1514 1516 1519 1521 1523 1525 1526 1528 1529 1530 1531 1532 1532 1533 1534 1534 1534 1533 1533 1532 1532 1531 1531 1531 1532 1532 1531 1530 1529 1529 1527 1526 1525 1524 1523 1522 1520 1518
1498 1500 1504 1507 1511 1515 1517 1519 1522 1524 1526 1527 1529 1530 1531 1532 1533 1534 1535 1536 1536 1536 1535 1535 1534 1534 1534 1534 1534 1534 1535 1534 1534 1532 1532 1531 1529 1528 1527 1527 1525 1524 1523
1501 1502 1505 1508 1511 1514 1518 1520 1522 1524 1527 1528 1530 1532 1532 1533 1535 1536 1537 1538 1537 1537 1537 1537 1537 1537 1536 1536 1537 1537 1538 1538 1537 1536 1535 1534 1533 1532 1531 1530 1529 1528 1527
1503 1505 1506 1508 1512 1515 1517 1521 1523 1525 1528 1530 1531 1533 1533 1535 1536 1537 1538 1539 1539 1539 1539 1539 1539 1539 1539 1539 1540 1540 1541 1541 1542 1540 1538 1538 1537 1536 1535 1534 1533 1532 1531
1503 1507 1507 1510 1512 1515 1518 1521 1523 1526 1528 1530 1532 1534 1534 1536 1537 1539 1540 1541 1541 1541 1541 1541 1541 1541 1541 1542 1542 1543 1543 1544 1543 1545 1543 1542 1540 1540 1539 1538 1537 1536 1535
1502 1506 1507 1511 1513 1515 1519 1521 1524 1526 1529 1531 1533 1534 1536 1537 1539 1540 1541 1542 1543 1542 1542 1542 1543 1543 1544 1544 1545 1545 1546 1547 1546 1546 1546 1545 1545 1544 1543 1542 1541 1541 1540
1502 1506 1507 1510 1513 1516 1519 1521 1524 1527 1529 1532 1534 1535 1537 1539 1540 1541 1543 1544 1544 1545 1545 1545 1544 1544 1546 1545 1547 1548 1549 1551 1551 1549 1549 1549 1549 1548 1547 1547 1546 1545 1544
1503 1506 1508 1510 1513 1517 1519 1522 1524 1527 1529 1532 1534 1535 1538 1540 1541 1542 1544 1545 1545 1546 1547 1547 1546 1546 1547 1548 1549 1550 1552 1552 1554 1553 1552 1551 1552 1551 1551 1551 1550 1549 1548
1503 1505 1507 1510 1513 1517 1519 1522 1525 1527 1529 1532 1534 1536 1539 1541 1542 1544 1545 1547 1547 1548 1548 1548 1548 1548 1549 1551 1552 1553 1554 1556 1556 1555 1554 1554 1554 1554 1553 1553 1553 1553 1552
1503 1505 1507 1509 1513 1518 1520 1522 1525 1527 1529 1532 1535 1537 1540 1542 1544 1546 1546 1548 1548 1549 1550 1550 1550 1551 1552 1553 1555 1556 1558 1560 1559 1557 1556 1556 1554 1554 1554 1554 1553 1554 1554
1502 1505 1507 1509 1512 1517 1522 1521 1526 1527 1529 1533 1536 1538 1542 1544 1546 1546 1546 1549 1549 1550 1551 1552 1553 1554 1555 1556 1558 1560 1562 1562 1560 1560 1558 1559 1558 1558 1557 1558 1557 1557 1557
1500 1504 1507 1511 1512 1516 1521 1523 1526 1528 1531 1532 1536 1540 1543 1545 1546 1547 1546 1549 1550 1551 1553 1554 1556 1559 1561 1561 1563 1564 1566 1564 1563 1562 1562 1561 1562 1561 1561 1561 1560 1560 1559
1495 1502 1506 1510 1512 1516 1519 1523 1526 1528 1528 1531 1535 1540 1542 1545 1546 1548 1549 1552 1553 1556 1556 1557 1560 1560 1561 1563 1565 1565 1567 1567 1566 1565 1565 1565 1564 1565 1563 1564 1563 1563 1563
1495 1499 1503 1507 1511 1514 1518 1522 1525 1525 1527 1531 1534 1539 1542 1544 1546 1548 1550 1552 1555 1556 1557 1559 1561 1561 1564 1566 1567 1567 1568 1568 1568 1567 1568 1567 1567 1566 1567 1568 1567 1566 1566
1493 1494 1501 1503 1508 1513 1517 1521 1523 1524 1527 1529 1533 1537 1540 1543 1546 1547 1549 1551 1554 1556 1558 1560 1562 1563 1564 1567 1568 1569 1569 1569 1569 1567 1568 1569 1570 1569 1568 1570 1570 1569 1568
1488 1493 1497 1499 1503 1509 1514 1518 1520 1522 1525 1529 1532 1535 1538 1542 1545 1546 1549 1550 1553 1556 1558 1561 1563 1564 1565 1567 1568 1570 1571 1570 1571 1571 1570 1570 1572 1572 1570 1571 1571 1571 1571
1484 1487 1488 1492 1494 1504 1511 1513 1518 1520 1523 1527 1531 1533 1536 1539 1542 1544 1547 1549 1552 1555 1558 1560 1562 1564 1565 1567 1569 1570 1571 1571 1573 1572 1573 1572 1573 1573 1574 1572 1573 1573 1572
1477 1480 1482 1488 1493 1499 1507 1511 1514 1517 1521 1525 1529 1531 1533 1536 1539 1542 1546 1548 1551 1554 1556 1559 1561 1564 1566 1567 1569 1571 1572 1572 1573 1573 1572 1573 1573 1573 1572 1573 1573 1573 1573
1472 1474 1478 1480 1488 1498 1503 1505 1511 1515 1519 1523 1527 1529 1531 1533 1538 1540 1544 1547 1549 1552 1556 1558 1562 1564 1566 1567 1569 1570 1572 1572 1573 1574 1573 1574 1573 1573 1573 1572 1572 1573 1573
1470 1470 1459 1462 1483 1487 1493 1499 1507 1511 1516 1521 1526 1529 1530 1531 1534 1538 1542 1544 1547 1551 1554 1557 1562 1564 1566 1568 1569 1570 1571 1572 1571 1572 1572 1573 1572 1572 1572 1572 1571 1571 1571
1467 1468 1461 1472 1477 1485 1479 1491 1500 1508 1513 1519 1524 1526 1528 1529 1530 1534 1539 1542 1545 1550 1553 1556 1559 1562 1565 1567 1568 1569 1570 1571 1570 1571 1570 1571 1572 1571 1570 1571 1570 1570 1571
1462 1462 1468 1440 1474 1478 1480 1486 1495 1503 1510 1514 1520 1524 1525 1527 1528 1530 1535 1541 1544 1548 1552 1555 1556 1559 1563 1565 1566 1568 1569 1569 1567 1567 1567 1568 1568 1569 1569 1569 1568 1566 1566
1458 1463 1464 1471 1474 1477 1479 1483 1491 1499 1506 1511 1515 1519 1523 1523 1525 1526 1530 1536 1539 1543 1549 1551 1554 1557 1560 1563 1563 1565 1566 1568 1568 1567 1566 1565 1565 1566 1567 1567 1567 1564 1563
1454 1459 1468 1467 1446 1470 1474 1483 1493 1499 1505 1511 1515 1517 1517 1519 1521 1524 1527 1531 1537 1541 1545 1546 1550 1554 1559 1563 1563 1564 1564 1565 1565 1565 1564 1563 1563 1562 1562 1563 1563 1563 1560
1456 1456 1456 1465 1470 1464 1471 1485 1493 1499 1503 1507 1510 1509 1511 1511 1514 1516 1519 1522 1530 1533 1537 1545 1550 1555 1557 1561 1561 1561 1562 1563 1563 1562 1561 1561 1560 1559 1557 1557 1558 1558 1558